Probability
0 0 0 0 0 0 0 0 0 0 0 0 0 0 0 0 0 0 0 0 0 0 0 0 0 0 0 0 0 0 0 0 0 0 0 0 0 0
0 0 0 0 0 0 0 0 0 0 0 0 0 0 0 0 0 0 0 0 0 0 0 0 0 0 0 0 0 0 0 0 0 0 0 0 0 0
0 0 0 0 0 0 0 0 0 0 0 0 0 0 0 0 0 0 0 0 0 0 0 0 0 0 0 0 0 0 0 0 0 0 0 0 0 0
0 0 0 0 0 0 0 0 0 0 0 0 0 0 0 0 0 0 0 0 0 0 0 0 0 0 0 0 0 0 0 0 0 0 0 0 0 0
0 0 0 0 0 0 0 0 0 0 0 0 0 0 0 0 0 0 0 0 0 0 0 0 0 0 0 0 0 0 0 0 0 0 0 0 0 0
0 0 0 0 0 0 0 0 0 0 0 0 0 0 0 0 0 0 0 0 0 0 0 0 0 0 0 0 0 0 0 0 0 0 0 0 0 0
0 0 0 0 0 0 0 0 0 0 0 0 0 0 0 0 0 0 0 0 0 0 0 0 0 0 0 0 0 0 0 0 0 0 0 0 0 0
0 0 0 0 0 0 0 0 0 0 0 0 0 0 0 0 0 0 0 0 0 0 0 0 0 0 0 0 0 0 0 0 0 0 0 0 0 0
0 0 0 0 0 0 0 0 0 0 0 0 0 0 0 0 0 0 0 0 0 0 0 0 0 0 0 0 0 0 0 0 0 0 0 0 0 0
0 0 0 0 0 0 0 0 0 0 0 0 0 0 0 0 0 0 0 0 0 0 0 0 0 0 0 0 0 0 0 0 0 0 0 0 0 0
0 0 0 0 0 0 0 0 0 0 0 0 0 0 0 0 0 0 0 0 0 0 0 0 0 0 0 0 0 0 0 0 0 0 0 0 0 0
0 0 0 0 0 0 0 0 0 0 0 0 0 0 0 0 0 0 0 0 0 0 0 0 0 0 0 0 0 0 0 0 0 0 0 0 0 0
0 0 0 0 0 0 0 0 0 0 0 0 0 0 0 0 0 0 0 0 0 0 0 0 0 0 0 0 0 0 0 0 0 0 0 0 0 0
0 0 0 0 0 0 0 0 0 0 0 0 0 0 0 0 0 0 0 0 0 0 0 0 0 0 0 0 0 0 0 0 0 0 0 0 0 0
0 0 0 0 0 0 0 0 0 0 0 0 0 0 0 0 0 0 0 0 0 0 0 0 0 0 0 0 0 0 0 0 0 0 0 0 0 0
0 0 0 0 0 0 0 0 0 0 0 0 0 0 0 0 0 0 0 0 0 0 0 0 0 0 0 0 0 0 0 0 0 0 0 0 0 0
0 0 0 0 0 0 0 0 0 0 0 0 0 0 0 0 0 0 0 0 0 0 0 0 0 0 0 0 0 0 0 0 0 0 0 0 0 0
0 0 0 0 0 0 0 0 0 0 0 0 0 0 0 0 0 0 0 0 0 0 0 0 0 0 0 0 0 0 0 0 0 0 0 0 0 0
0 0 0 0 0 0 0 0 0 0 0 0 0 0 0 0 0 0 0 0 0 0 0 0 0 0 0 0 0 0 0 0 0 0 0 0 0 0
0 0 0 0 0 0 0 0 0 0 0 0 0 0 0 0 0 0 0 0 0 0 0 0 0 0 0 0 0 0 0 0 0 0 0 0 0 0
0 0 0 0 0 0 0 0 0 0 0 0 0 0 0 0 0 0 0 0 0 0 0 0 0 0 0 0 0 0 0 0 0 0 0 0 0 0
0 0 0 0 0 0 0 0 0 0 0 0 0 0 0 0 0 0 0 0 0 0 0 0 0 0 0 0 0 0 0 0 0 0 0 0 0 0
0 0 0 0 0 0 0 0 0 0 0 0 0 0 0 0 0 0 0 0 0 0 0 0 0 0 0 0 0 0 0 0 0 0 0 0 0 0
Wind_Speed
12 12 9 7 6 5 5 5 4 4 4 3 3 3 2 2 1 3 4 5 7 8 9 9 9 10 11 12 13 14 14 15 16 17 18 18 19 20
10 11 10 7 6 5 5 5 5 5 4 2 3 2 2 2 2 4 4 5 6 7 8 9 9 10 11 11 12 13 13 14 15 17 18 18 19 20
11 12 11 10 7 6 5 5 5 5 6 4 2 2 3 3 2 3 3 4 3 6 8 8 9 9 10 11 11 12 13 14 15 16 17 18 19 20
13 12 12 9 10 7 6 7 6 6 5 6 3 2 3 3 3 3 3 3 4 5 7 8 9 9 10 10 11 11 12 13 14 15 16 17 18 19
14 13 12 12 11 8 8 7 5 5 5 4 3 1 2 1 3 3 3 3 4 4 6 7 8 9 9 10 10 11 11 12 13 14 15 16 17 18
12 12 12 12 12 11 8 8 6 6 5 4 3 2 2 1 2 3 3 3 4 3 5 6 7 8 8 9 9 9 10 11 13 14 15 16 16 18
11 11 11 11 11 9 7 8 7 5 4 4 4 2 2 1 2 2 3 3 4 2 5 4 5 5 5 6 6 8 10 11 12 14 15 16 16 17
12 11 10 11 11 11 10 9 9 7 6 5 4 4 4 3 1 1 2 3 3 1 5 5 4 5 5 4 6 9 10 11 12 14 15 15 16 17
12 11 8 8 11 9 9 9 7 6 5 5 5 4 3 2 1 2 2 3 4 3 4 5 4 5 5 5 7 8 10 11 13 14 15 15 16 17
11 11 11 11 10 10 9 7 6 4 4 3 3 2 1 1 1 1 2 3 3 2 3 4 5 6 6 5 5 8 10 12 13 14 14 15 16 17
10 10 11 11 13 14 10 9 7 4 4 5 4 4 4 3 2 1 1 1 2 1 1 3 4 6 6 4 4 8 10 11 12 13 14 14 16 16
8 9 11 12 15 16 11 10 8 6 6 5 4 4 3 4 3 1 0 1 2 2 1 3 3 4 5 4 5 6 6 9 12 12 12 14 15 10
8 8 8 15 16 15 11 8 9 8 6 5 4 3 2 1 1 1 1 1 1 2 1 2 3 3 4 5 6 5 6 7 7 8 9 12 14 11
9 8 9 16 16 15 10 11 13 9 5 4 3 2 2 1 1 1 1 2 2 3 3 3 3 4 4 6 6 6 7 7 6 7 7 11 11 12
8 12 14 17 15 11 12 14 11 6 5 4 3 2 2 1 1 1 2 1 2 2 2 3 4 4 5 5 6 7 7 7 6 7 8 8 8 7
10 14 16 15 11 11 11 8 5 4 5 4 3 3 2 2 1 1 1 1 2 2 2 4 4 5 5 7 6 7 7 6 7 8 8 8 7 6
12 9 8 8 7 6 5 5 5 5 4 4 4 3 2 2 1 1 1 1 2 3 3 3 4 5 7 6 5 6 7 7 7 8 8 9 8 7
13 9 9 8 8 7 7 6 5 4 4 4 4 3 3 2 1 0 0 1 2 3 3 4 5 5 3 3 5 6 6 7 7 8 8 8 9 7
10 9 8 8 7 7 7 6 5 5 4 4 4 3 3 2 1 1 0 1 2 2 3 3 3 4 5 6 4 3 6 7 8 7 7 7 9 9
7 8 8 8 7 7 7 6 6 5 5 4 4 3 3 2 2 1 0 1 2 2 3 3 3 3 4 5 5 6 8 8 7 8 8 8 8 9
7 7 7 7 7 7 7 6 6 6 5 4 4 4 3 2 2 1 0 1 2 2 3 3 3 6 4 4 5 6 6 7 8 7 8 8 7 6
8 8 7 8 8 7 7 7 6 6 6 5 4 4 3 2 2 1 1 1 1 2 3 3 3 3 3 4 6 7 8 8 8 8 8 7 5 5
8 8 8 8 8 7 7 8 8 6 5 5 4 4 3 3 2 1 1 1 1 2 3 3 3 3 3 4 5 6 8 9 7 7 5 7 10 11
Wind_Direction
205 206 208 207 207 211 214 217 230 252 253 218 208 197 218 249 276 265 271 282 282 286 291 296 299 301 303 305 307 309 314 318 319 319 320 321 324 325
200 202 205 203 200 203 208 216 225 240 255 244 229 199 215 252 269 276 280 293 280 288 293 297 301 303 304 304 306 310 315 318 320 320 320 322 323 325
196 201 203 201 196 197 201 206 213 223 243 252 238 222 237 256 264 277 285 287 285 290 294 299 303 304 303 304 307 311 314 317 319 319 319 321 323 324
197 198 201 197 199 196 196 202 207 213 230 247 243 229 249 270 283 282 288 292 294 298 294 298 301 301 302 304 307 311 314 316 317 318 319 321 323 323
197 198 198 196 199 197 196 200 202 204 218 233 246 232 248 274 285 282 288 296 301 300 293 296 297 300 302 304 308 312 315 316 316 318 320 322 323 323
197 197 197 198 200 196 195 199 195 196 203 218 233 232 243 272 279 287 292 299 300 299 297 301 298 297 299 302 309 315 318 319 319 320 321 322 323 322
192 195 197 197 196 191 187 190 187 191 194 207 221 223 227 240 263 283 291 311 300 297 308 302 300 297 301 300 307 318 319 320 320 321 321 322 322 321
188 190 189 188 187 186 182 180 183 191 196 200 213 223 233 236 259 285 303 313 296 327 311 301 301 301 308 308 315 314 318 320 321 321 321 320 320 320
185 183 181 182 182 185 178 169 174 183 196 201 210 223 225 219 225 264 280 293 296 329 313 293 304 304 312 307 307 308 316 320 320 319 319 319 320 320
184 182 180 179 180 176 171 170 175 181 192 201 211 210 185 177 213 261 286 298 303 308 322 290 310 312 312 299 296 304 312 316 318 318 318 320 320 320
178 180 178 178 169 164 163 162 162 159 138 133 118 102 97 96 101 99 34 319 299 302 337 301 310 318 306 293 301 304 307 311 315 317 319 321 323 322
170 174 176 172 164 164 170 167 169 169 152 143 136 120 109 104 107 104 174 304 309 293 349 314 311 328 309 301 312 310 306 309 315 316 318 322 326 322
168 170 170 164 162 165 168 171 166 155 150 148 144 136 120 108 87 48 15 305 286 276 312 319 304 309 296 302 305 307 313 316 315 313 314 321 323 321
166 165 160 158 158 160 161 152 145 142 141 144 145 146 143 120 77 35 10 342 319 285 280 291 280 289 296 297 295 308 316 315 314 315 318 320 316 315
154 151 147 148 150 153 150 147 146 147 147 148 153 148 125 111 93 51 25 3 327 309 288 291 285 285 281 278 288 301 311 312 312 316 318 317 315 315
136 135 134 136 137 138 142 146 147 150 151 148 141 127 119 119 107 47 351 339 326 325 323 314 303 289 282 281 282 290 301 304 310 317 317 312 310 309
139 134 139 142 145 143 139 137 141 143 140 136 136 132 129 124 96 56 1 323 318 318 324 329 321 301 278 273 283 290 303 307 312 319 318 313 312 314
140 144 151 155 157 155 151 147 147 148 144 141 141 140 144 143 131 102 353 322 315 319 323 330 334 329 310 269 246 286 302 311 315 315 312 311 311 316
145 151 155 159 155 154 154 153 152 146 143 144 145 145 143 146 147 147 327 328 323 322 322 325 332 335 327 324 307 262 302 312 313 312 312 310 306 310
152 154 156 155 153 154 154 149 142 141 144 146 146 147 151 155 156 160 224 320 317 321 321 320 324 322 310 308 304 295 294 300 308 310 312 311 302 296
153 151 150 151 150 150 148 146 145 146 147 149 150 151 155 155 157 169 231 292 314 316 312 312 319 316 298 284 289 297 307 306 300 296 305 311 313 315
151 149 149 148 147 148 146 145 143 145 150 153 153 154 156 157 159 175 217 271 302 312 310 313 320 317 310 303 310 312 316 321 314 300 281 277 299 314
150 148 147 148 148 147 147 147 148 150 153 154 154 155 156 157 161 173 195 279 320 328 326 325 329 326 316 307 312 316 321 326 327 329 324 319 308 296